Weather History for Fort Worth, TX

Change the Weather History Date:

Thursday, March 27, 2014

  Actual Average Record
Temperature  
Mean Temperature 72 °F -  
Max Temperature 87 °F 67 °F 87 °F (2014)
Min Temperature 57 °F 48 °F 33 °F (2009)
Cooling Degree Days 7    
Growing Degree Days 22 (Base 50)    
Moisture  
Dew Point 58 °F    
Average Humidity 77    
Maximum Humidity 97    
Minimum Humidity 22    
Precipitation  
Precipitation 0.01 in - - ()
Sea Level Pressure  
Sea Level Pressure 29.75 in    
Wind  
Wind Speed 16 mph (South)    
Max Wind Speed 23 mph    
Max Gust Speed 32 mph    
Visibility 8 miles    
Events Rain    
Averages and records for this station are not official NWS values.
T = Trace of Precipitation, MM = Missing Value Source: NWS Daily Summary

Daily Weather History Graph

Daily Weather History Graph

Search for Another Location

Airport:

Trip Planner

Search our weather history database for the weather conditions in past years. The results will help you decide how hot, cold, wet, or windy it might be!

Date:

Astronomy

Mar. 27, 2014 Rise Set
Actual Time 7:23 AM CDT 7:46 PM CDT
Civil Twilight 6:59 AM CDT 8:10 PM CDT
Nautical Twilight 6:30 AM CDT 8:39 PM CDT
Astronomical Twilight 6:00 AM CDT 9:09 PM CDT
Moon 5:05 AM CDT (3/27) 4:44 PM CDT (3/27)
Length of Visible Light 13h 11m
Length of Day
12h 22m
Waning Crescent, 13% of the Moon is Illuminated
Mar 27
Waning Crescent
Mar 30
New
Apr 7
First Quarter
Apr 15
Full
Apr 22
Last Quarter

Hourly Weather History & Observations

Time (CDT) Temp. Heat Index Dew Point Humidity Pressure Visibility Wind Dir Wind Speed Gust Speed Precip Events Conditions
12:53 AM 59.0 °F - 52.0 °F 78% 29.87 in 10.0 mi South 17.3 mph 26.5 mph N/A   Overcast
1:53 AM 57.9 °F - 53.1 °F 84% 29.83 in 10.0 mi South 17.3 mph - N/A   Overcast
2:29 AM 57.2 °F - 53.6 °F 88% 29.82 in 10.0 mi South 21.9 mph 29.9 mph N/A   Overcast
2:36 AM 57.2 °F - 53.6 °F 88% 29.82 in 10.0 mi South 19.6 mph 32.2 mph N/A   Overcast
2:53 AM 57.0 °F - 54.0 °F 89% 29.81 in 6.0 mi South 15.0 mph 21.9 mph N/A   Overcast
3:04 AM 57.2 °F - 55.4 °F 94% 29.82 in 5.0 mi South 16.1 mph 25.3 mph N/A   Overcast
3:53 AM 57.0 °F - 55.0 °F 93% 29.80 in 4.0 mi South 13.8 mph 20.7 mph N/A   Overcast
4:53 AM 57.9 °F - 55.9 °F 93% 29.77 in 4.0 mi SSE 13.8 mph - 0.00 in   Overcast
5:53 AM 57.9 °F - 57.0 °F 97% 29.76 in 4.0 mi South 16.1 mph - 0.00 in   Overcast
6:53 AM 59.0 °F - 57.9 °F 96% 29.76 in 4.0 mi South 16.1 mph - 0.00 in Rain Light Rain
7:53 AM 60.1 °F - 57.9 °F 93% 29.77 in 6.0 mi South 13.8 mph 21.9 mph 0.00 in   Overcast
8:12 AM 60.8 °F - 59.0 °F 94% 29.79 in 2.0 mi South 15.0 mph 21.9 mph 0.00 in Rain Light Rain
8:23 AM 60.8 °F - 59.0 °F 94% 29.79 in 1.8 mi South 15.0 mph 24.2 mph 0.00 in Rain Light Rain
8:31 AM 60.8 °F - 59.0 °F 94% 29.80 in 2.5 mi South 13.8 mph 20.7 mph 0.00 in Rain Light Rain
8:39 AM 60.8 °F - 59.0 °F 94% 29.80 in 3.0 mi South 15.0 mph 20.7 mph 0.00 in   Overcast
8:53 AM 61.0 °F - 59.0 °F 93% 29.79 in 4.0 mi South 12.7 mph - 0.00 in   Overcast
9:53 AM 62.1 °F - 61.0 °F 96% 29.78 in 6.0 mi South 18.4 mph 23.0 mph 0.01 in   Overcast
10:51 AM 64.4 °F - 60.8 °F 88% 29.79 in 10.0 mi South 17.3 mph 25.3 mph N/A   Overcast
10:53 AM 64.9 °F - 61.0 °F 87% 29.78 in 10.0 mi South 17.3 mph 25.3 mph N/A   Overcast
11:53 AM 68.0 °F - 62.1 °F 81% 29.76 in 10.0 mi South 17.3 mph 28.8 mph N/A   Overcast
12:53 PM 73.9 °F - 63.0 °F 68% 29.75 in 10.0 mi South 23.0 mph 28.8 mph N/A   Mostly Cloudy
1:09 PM 75.2 °F - 62.6 °F 65% 29.76 in 10.0 mi SSW 18.4 mph 31.1 mph N/A   Scattered Clouds
1:53 PM 75.9 °F - 62.1 °F 62% 29.73 in 10.0 mi South 17.3 mph - N/A   Clear
2:53 PM 82.0 °F 83.4 °F 64.0 °F 54% 29.68 in 10.0 mi South 13.8 mph 21.9 mph N/A   Partly Cloudy
3:53 PM 82.9 °F 83.2 °F 60.1 °F 46% 29.65 in 10.0 mi South 18.4 mph 28.8 mph N/A   Clear
4:53 PM 86.0 °F - 46.9 °F 26% 29.62 in 10.0 mi SW 16.1 mph 21.9 mph N/A   Clear
5:53 PM 87.1 °F - 44.1 °F 22% 29.62 in 10.0 mi SW 15.0 mph 21.9 mph N/A   Partly Cloudy
6:53 PM 82.9 °F - 46.0 °F 27% 29.64 in 10.0 mi NW 4.6 mph - N/A   Partly Cloudy
7:53 PM 75.9 °F - 57.9 °F 54% 29.65 in 10.0 mi South 5.8 mph - N/A   Clear
8:53 PM 77.0 °F - 63.0 °F 62% 29.66 in 10.0 mi South 11.5 mph - N/A   Clear
9:53 PM 73.0 °F - 64.0 °F 73% 29.70 in 10.0 mi South 11.5 mph - N/A   Clear
10:53 PM 71.1 °F - 64.9 °F 81% 29.72 in 10.0 mi South 10.4 mph - N/A   Clear
11:53 PM 70.0 °F - 64.9 °F 84% 29.72 in 10.0 mi South 9.2 mph - N/A   Clear